Darwin, CA

12:27 AM PST on February 09, 2016 (GMT -0800)
China Lake NAWS

Weather History for KNID - March, 2014

Change the Weather History Date:

Sunday, March 16, 2014

  Actual Average Record
Temperature  
Mean Temperature 62 °F -  
Max Temperature 82 °F 71 °F 90 °F (2007)
Min Temperature 42 °F 43 °F 27 °F (1999)
Degree Days  
Heating Degree Days 3    
Growing Degree Days 12 (Base 50)    
Moisture  
Dew Point 23 °F    
Average Humidity 26    
Maximum Humidity 55    
Minimum Humidity 8    
Precipitation  
Precipitation 0.00 in - - ()
Sea Level Pressure  
Sea Level Pressure 30.22 in    
Wind  
Wind Speed 6 mph (South)    
Max Wind Speed 15 mph    
Max Gust Speed -    
Visibility 10 miles    
Events      
Averages and records for this station are not official NWS values.
T = Trace of Precipitation, MM = Missing Value Source: NWS Daily Summary

Daily Weather History Graph

Daily Weather History Graph

Search for Another Location

Airport or City:

Trip Planner

Search our weather history database for the weather conditions in past years. The results will help you decide how hot, cold, wet, or windy it might be!

Date:

Astronomy

Mar. 16, 2014 Rise Set
Actual Time 6:59 AM PDT 6:59 PM PDT
Civil Twilight 6:34 AM PDT 7:24 PM PDT
Nautical Twilight 6:04 AM PDT 7:54 PM PDT
Astronomical Twilight 5:35 AM PDT 8:24 PM PDT
Moon 7:19 PM PDT (3/16) 6:46 AM PDT (3/16)
Length of Visible Light 12h 50m
Length of Day
11h 59m
Full, 100% of the Moon is Illuminated
Mar 16
Full
Mar 23
Last Quarter
Mar 30
New
Apr 7
First Quarter
Apr 15
Full

Hourly Weather History & Observations

Time (PDT) Temp. Windchill Dew Point Humidity Pressure Visibility Wind Dir Wind Speed Gust Speed Precip Events Conditions
12:56 AM 52.0 °F - 28.0 °F 40% 30.30 in 10.0 mi South 6.9 mph - N/A   Clear
1:56 AM 48.9 °F - 28.0 °F 44% 30.30 in 10.0 mi WSW 5.8 mph - N/A   Clear
2:56 AM 48.9 °F - 28.0 °F 44% 30.30 in 10.0 mi WSW 5.8 mph - N/A   Clear
3:56 AM 50.0 °F - 30.0 °F 46% 30.28 in 10.0 mi SW 10.4 mph - N/A   Clear
4:56 AM 48.0 °F - 28.9 °F 48% 30.30 in 10.0 mi Calm Calm - N/A   Clear
5:56 AM 44.1 °F 42.5 °F 28.0 °F 53% 30.31 in 10.0 mi SW 3.5 mph - N/A   Clear
6:56 AM 42.1 °F - 27.0 °F 55% 30.33 in 10.0 mi Calm Calm - N/A   Clear
7:56 AM 46.9 °F - 28.9 °F 50% 30.35 in 10.0 mi Calm Calm - N/A   Clear
8:56 AM 57.9 °F - 27.0 °F 31% 30.35 in 10.0 mi Calm Calm - N/A   Clear
9:56 AM 63.0 °F - 25.0 °F 24% 30.35 in 10.0 mi WNW 5.8 mph - N/A   Clear
10:56 AM 69.1 °F - 23.0 °F 18% 30.34 in 10.0 mi Calm Calm - N/A   Clear
11:56 AM 73.9 °F - 21.0 °F 14% 30.31 in 10.0 mi South 3.5 mph - N/A   Clear
12:56 PM 77.0 °F - 18.0 °F 11% 30.28 in 10.0 mi Variable 4.6 mph - N/A   Clear
1:56 PM 80.1 °F - 18.0 °F 10% 30.23 in 10.0 mi ESE 6.9 mph - N/A   Clear
2:56 PM 81.0 °F - 19.0 °F 10% 30.19 in 10.0 mi North - - N/A   Clear
3:56 PM 82.0 °F - 17.1 °F 9% 30.15 in 10.0 mi East 10.4 mph - N/A   Scattered Clouds
4:56 PM 82.0 °F - 16.0 °F 8% 30.12 in 10.0 mi SSE 11.5 mph - N/A   Scattered Clouds
5:56 PM 81.0 °F - 17.1 °F 9% 30.10 in 10.0 mi South 12.7 mph - N/A   Unknown
6:56 PM 77.0 °F - 17.1 °F 10% 30.09 in 10.0 mi South 15.0 mph - N/A   Unknown
7:56 PM 73.0 °F - 18.0 °F 12% 30.08 in 10.0 mi South 13.8 mph - N/A   Unknown
8:56 PM 70.0 °F - 21.9 °F 16% 30.08 in 10.0 mi South 12.7 mph - N/A   Clear
9:56 PM 64.9 °F - 21.9 °F 19% 30.08 in 10.0 mi South 10.4 mph - N/A   Clear
10:56 PM 60.1 °F - 21.0 °F 22% 30.06 in 10.0 mi South 9.2 mph - N/A   Clear
11:56 PM 60.1 °F - 21.0 °F 22% 30.03 in 10.0 mi South 5.8 mph - N/A   Clear